Location: Grasslands National Park East Block
(49.0708°N, 106.5295°W)
Time: 09:36:17
(UTC-06:00)

Vanguard 1 - Pass Details

Date: 25 September 2019
Orbit: 653 x 3830 km, 34.2° (Epoch: 20 October)

Event Time Altitude Azimuth Distance (km) Brightness Sun altitude
Rises 23:56:21 0° 199° (SSW) 6,979 - -39.9°
Reaches altitude 10° 00:01:49 10° 188° (S) 6,337 - -40.2°
Maximum altitude 00:18:08 28° 139° (SE) 5,506 - -40.9°
Exits shadow 00:26:11 23° 113° (ESE) 5,818 13.6 -41.2°
Drops below altitude 10° 00:34:59 10° 92° (E) 6,626 14.2 -41.4°
Sets 00:40:45 0° 82° (E) 7,346 14.6 -41.6°
